Pontianak, Indonesia

2:52 PM WIB on July 25, 2017 (GMT +0700)
Supadio

Weather History for WIOO - October, 2013

Change the Weather History Date:

Thursday, October 3, 2013

  Actual Average Record
Temperature  
Mean Temperature 84 °F -  
Max Temperature 93 °F - - ()
Min Temperature 75 °F - - ()
Cooling Degree Days 19    
Growing Degree Days 34 (Base 50)    
Moisture  
Dew Point 74 °F    
Average Humidity 74    
Maximum Humidity 100    
Minimum Humidity 41    
Precipitation  
Precipitation 0.00 in - - ()
Sea Level Pressure  
Sea Level Pressure 29.83 in    
Wind  
Wind Speed 4 mph ()    
Max Wind Speed 10 mph    
Max Gust Speed -    
Visibility 4.9 miles    
Events      
T = Trace of Precipitation, MM = Missing Value Source: Averaged Metar Reports

Daily Weather History Graph

Daily Weather History Graph

Search for Another Location

Airport or City:

Trip Planner

Search our weather history database for the weather conditions in past years. The results will help you decide how hot, cold, wet, or windy it might be!

Date:

Astronomy

Oct. 03, 2013 Rise Set
Actual Time 5:28 AM WIB 5:34 PM WIB
Civil Twilight 5:07 AM WIB 5:55 PM WIB
Nautical Twilight 4:43 AM WIB 6:19 PM WIB
Astronomical Twilight 4:19 AM WIB 6:43 PM WIB
Moon 3:49 AM WIB (10/3) 4:11 PM WIB (10/3)
Length of Visible Light 12h 48m
Length of Day
12h 06m
Waning Crescent, 4% of the Moon is Illuminated
Oct 3
Waning Crescent
Oct 5
New
Oct 12
First Quarter
Oct 19
Full
Oct 27
Last Quarter

Hourly Weather History & Observations

Time (WIB) Temp. Heat Index Dew Point Humidity Pressure Visibility Wind Dir Wind Speed Gust Speed Precip Events Conditions
1:00 AM 77 °F - 76 °F 95% 29.86 in 4 mi Calm Calm - -   Partly Cloudy
4:00 AM 76 °F - 74 °F 94% 29.86 in 4 mi Calm Calm - -   Partly Cloudy
5:30 AM 75.2 °F - 75.2 °F 100% 29.86 in 3.1 mi Calm Calm - N/A   Haze
6:00 AM 77.0 °F - 75.2 °F 94% 29.86 in 3.1 mi Calm Calm - N/A   Haze
6:30 AM 77.0 °F - 75.2 °F 94% 29.86 in 3.7 mi SE 4.6 mph - N/A   Partly Cloudy
7:00 AM 74 °F - 76 °F 100% 29.89 in 4 mi SE 5.8 mph - -   Scattered Clouds
7:00 AM 78.8 °F - 75.2 °F 89% 29.86 in 3.7 mi SE 5.8 mph - N/A   Partly Cloudy
7:30 AM 78.8 °F - 75.2 °F 89% 29.89 in 4.3 mi South 4.6 mph - N/A   Partly Cloudy
8:00 AM 80.6 °F 87.1 °F 77.0 °F 89% 29.89 in 5.0 mi South 5.8 mph - N/A   Partly Cloudy
8:30 AM 82.4 °F 90.9 °F 77.0 °F 84% 29.89 in 6.2 mi SE 5.8 mph - N/A   Partly Cloudy
9:00 AM 86.0 °F 96.9 °F 77.0 °F 74% 29.89 in 6.2 mi SE 4.6 mph - N/A   Partly Cloudy
9:30 AM 86.0 °F 96.9 °F 77.0 °F 74% 29.89 in 6.2 mi SSE 4.6 mph - N/A   Partly Cloudy
10:00 AM 88 °F - 77 °F 62% 29.90 in 6 mi SSE 5.8 mph - -   Partly Cloudy
10:00 AM 87.8 °F 99.7 °F 77.0 °F 70% 29.89 in 6.2 mi SSE 5.8 mph - N/A   Scattered Clouds
10:30 AM 89.6 °F 102.2 °F 77.0 °F 66% 29.86 in 6.2 mi SSE 3.5 mph - N/A   Scattered Clouds
11:30 AM 91.4 °F 102.5 °F 75.2 °F 59% 29.86 in 6.2 mi South 4.6 mph - N/A   Unknown
12:00 PM 91.4 °F 102.5 °F 75.2 °F 59% 29.83 in 6.2 mi South 6.9 mph - N/A   Mostly Cloudy
12:30 PM 91.4 °F 102.5 °F 75.2 °F 59% 29.83 in 6.2 mi South 9.2 mph - N/A   Mostly Cloudy
1:00 PM 93 °F - 72 °F 41% 29.81 in 6 mi SW 9.2 mph - -   Mostly Cloudy
1:00 PM 93.2 °F 100.5 °F 71.6 °F 49% 29.80 in 6.2 mi SW 9.2 mph - N/A   Mostly Cloudy
1:30 PM 93.2 °F 100.5 °F 71.6 °F 49% 29.77 in 6.2 mi SSW 5.8 mph - N/A   Mostly Cloudy
2:00 PM 93.2 °F 98.8 °F 69.8 °F 46% 29.77 in 6.2 mi SSW 9.2 mph - N/A   Mostly Cloudy
2:30 PM 93.2 °F 98.8 °F 69.8 °F 46% 29.77 in 6.2 mi East 3.5 mph - N/A   Mostly Cloudy
3:00 PM 91.4 °F 98.4 °F 71.6 °F 52% 29.74 in - SW 8.1 mph - N/A   Scattered Clouds
3:30 PM 91.4 °F 98.4 °F 71.6 °F 52% 29.74 in 6.2 mi SW 10.4 mph - N/A   Scattered Clouds
4:00 PM 90 °F - 72 °F 47% 29.77 in 6 mi West 10.4 mph - -   Partly Cloudy
4:00 PM 91.4 °F 98.4 °F 71.6 °F 52% 29.74 in 6.2 mi West 10.4 mph - N/A   Scattered Clouds
4:30 PM 89.6 °F 98.2 °F 73.4 °F 59% 29.77 in 6.2 mi West 9.2 mph - N/A   Scattered Clouds
5:30 PM 86.0 °F 93.4 °F 73.4 °F 66% 29.77 in 3.7 mi WNW 5.8 mph - N/A   Partly Cloudy
6:00 PM 82.4 °F 89.5 °F 75.2 °F 79% 29.77 in 3.7 mi North 3.5 mph - N/A   Partly Cloudy
6:30 PM 82.4 °F 89.5 °F 75.2 °F 79% 29.77 in 3.7 mi Calm Calm - N/A   Partly Cloudy
7:00 PM 79 °F - 74 °F 80% 29.82 in 4 mi West 3.5 mph - -   Scattered Clouds
7:00 PM 78.8 °F - 73.4 °F 83% 29.80 in 3.7 mi West 3.5 mph - N/A   Partly Cloudy
7:30 PM 78.8 °F - 73.4 °F 83% 29.80 in 3.7 mi Calm Calm - N/A   Partly Cloudy
8:00 PM 77.0 °F - 73.4 °F 89% 29.83 in 3.7 mi Calm Calm - N/A   Partly Cloudy
8:30 PM 77.0 °F - 73.4 °F 89% 29.83 in 3.7 mi NNE 3.5 mph - N/A   Partly Cloudy
9:00 PM 75.2 °F - 73.4 °F 94% 29.83 in - North - - N/A   Partly Cloudy
9:30 PM 75.2 °F - 73.4 °F 94% 29.86 in 3.7 mi Calm Calm - N/A   Partly Cloudy
10:00 PM 76 °F - 73 °F 89% 29.87 in 4 mi Calm Calm - -   Scattered Clouds
10:00 PM 75.2 °F - 73.4 °F 94% 29.86 in 3.7 mi Calm Calm - N/A   Partly Cloudy